Regional Weather Roundup
Issued by NWS

Home | Current Version | Previous Version | Text Only | Print | Product List | Glossary On
Versions: 1 2 3 4 5 6 7 8 9 10 11 12 13 14 15 16 17 18 19 20 21 22 23 24 25 26 27 28 29 30 31 32 33 34 35 36 37 38 39 40 41 42 43 44 45 46 47 48 49 50
000
ASUS43 KDTX 271710
RWRMI
MICHIGAN HOURLY REGIONAL WEATHER ROUNDUP
NATIONAL WEATHER SERVICE DETROIT/PONTIAC MI
100 PM EDT WED AUG 27 2014

NOTE: "FAIR" INDICATES FEW OR NO CLOUDS BELOW 12,000 FEET WITH NO
SIGNIFICANT WEATHER AND/OR OBSTRUCTION TO VISIBILITY.

MIZ047>049-052>055-059>063-066>070-074>076-081>083-271800-
SOUTHEAST LOWER MICHIGAN

CITY           SKY/WX    TMP DP  RH WIND       PRES   REMARKS
ADRIAN         PTSUNNY   77  64  64 E5        30.12F
ALMA           PTSUNNY   71  59  65 NW3       30.16S
ANN ARBOR      PTSUNNY   74  61  63 CALM      30.12F
BAD AXE        PTSUNNY   67  56  67 NW10      30.15F
DETROIT CITY   MOSUNNY   76  58  53 VRB5      30.12F
DETROIT        PTSUNNY   75  62  64 N5        30.12F
FLINT          MOSUNNY   74  57  55 N10       30.14F
GROSSE ILE     MOSUNNY   73  63  68 NE5       30.11F
HILLSDALE      SUNNY     73  65  74 CALM      30.13F
HOWELL         PTSUNNY   71  61  71 NE3       30.14F

CITY           SKY/WX    TMP DP  RH WIND       PRES   REMARKS
JACKSON        SUNNY     74  63  68 N5        30.13F
LAMBERTVILLE   MOSUNNY   77  63  61 CALM      30.12F
LANSING        MOSUNNY   74  60  61 NW5       30.15S
LAPEER         NOT AVBL
MASON          CLOUDY    71  63  76 NW6       30.14S
MONROE         MOSUNNY   75  63  64 CALM      30.10F
MT. CLEMENS    MOSUNNY   73  57  57 N6        30.11F
PONTIAC        PTSUNNY   72  58  61 NW8       30.12F
PORT HOPE        N/A     66  53  63 VRB3      30.14S
PORT HURON     PTSUNNY   70  59  68 N7        30.12F
TRI CITIES     PTSUNNY   71  57  61 W6        30.15F
YPSILANTI      MOSUNNY   78  61  55 NW5       30.13F
$$
MIZ043>046-050>051-056>058-064>065-071>073-077>080-271800-
SOUTHWEST LOWER MICHIGAN

CITY           SKY/WX    TMP DP  RH WIND       PRES   REMARKS
BATTLE CREEK   SUNNY     74  60  61 NW7       30.15S
BENTON HARBOR  SUNNY     75  62  64 VRB6      30.15S
BIG RAPIDS     MOSUNNY   71  58  62 NW10      30.15F
COLDWATER      SUNNY     77  64  63 NE6       30.13S
HOLLAND        SUNNY     75  58  55 E7        30.16S
GRAND RAPIDS   PTSUNNY   73  63  70 E6        30.16S
KALAMAZOO      SUNNY     76  58  53 CALM      30.14F
MARSHALL       MOSUNNY   71  63  76 CALM      30.13F
MUSKEGON       PTSUNNY   76  58  53 NW7       30.17R
$$
MIZ016>042-271800-
NORTHERN LOWER MICHIGAN

CITY           SKY/WX    TMP DP  RH WIND       PRES   REMARKS
ALPENA         PTSUNNY   65  50  58 NW14G21   30.15S
BEAVER ISLAND  SUNNY     67  51  57 W8        30.18F
BELLAIRE       CLOUDY    67  52  59 NW6       30.17F
CADILLAC       PTSUNNY   67  52  58 CALM      30.18S
CHARLEVOIX     SUNNY     65  52  63 NW8       30.21F
FRANKFORT      MOSUNNY   68  50  52 NW5       30.18F
GAYLORD        PTSUNNY   63  50  62 NW9       30.17F
GRAYLING       PTSUNNY   69  52  54 NW10      30.18F
HARBOR SPRINGS MOSUNNY   67  48  51 W8        30.17F
HOUGHTON LAKE  PTSUNNY   68  50  52 NW6       30.17F
MANISTEE       SUNNY     68  52  56 NW10      30.18F
OSCODA         MOSUNNY   69  49  49 NW10G17   30.14S
PELLSTON       MOSUNNY   66  47  50 NW17G23   30.17F
TRAVERSE CITY  MOSUNNY   67  50  54 N9        30.17F
$$
MIZ007>008-015-271800-
EASTERN UPPER MICHIGAN

CITY           SKY/WX    TMP DP  RH WIND       PRES   REMARKS
KINROSS        PTSUNNY   63  46  55 NW18      30.13F
MACKINAC ISLAN CLOUDY    61  52  70 W10       30.15F
NEWBERRY       PTSUNNY   62  47  57 NW8G23    30.16S
S. S. MARIE    CLOUDY    62  48  60 NW10      30.13S
$$
MIZ004>006-011>014-085-271800-
CENTRAL UPPER MICHIGAN

CITY           SKY/WX    TMP DP  RH WIND       PRES   REMARKS
MANISTIQUE     CLOUDY    66  51  57 CALM      30.18S
ESCANABA       CLOUDY    63  52  67 SE6       30.19S
MENOMINEE      PTSUNNY   64  52  63 CALM      30.19R
SAWYER-GWINN   PTSUNNY   61  50  67 CALM      30.19F
$$
MIZ001>003-009>011-084-271800-
WESTERN UPPER MICHIGAN

CITY           SKY/WX    TMP DP  RH WIND       PRES   REMARKS
IRON MOUNTAIN  PTSUNNY   64  48  56 N6        30.19S
HOUGHTON       PTSUNNY   63  44  50 NW6       30.19S
COPPER HARBOR    N/A     58  46  64 N10       30.18R
$$

ABBREVIATIONS USED IN REMARKS
   TC - TEMPERATURE IN CELSIUS
  WCI - WIND CHILL INDEX
   HX - HEAT INDEX
  VSB - VISIBILITY



USA.gov is the U.S. government's official web portal to all federal, state and local government web resources and services.